[[{"header":{"parameterUnit":"m.s-1","parameterCategory":1,"la1":30.2991,"la2":30.254,"lo1":-89.0895,"lo2":-89.0444,"dy":0.0017,"dx":0.0017,"nx":28,"ny":28,"refTime":"2024-10-02T21:00:00:Z","depth":0,"parameterNumber":2,"parameterNumberName":"U-component_of_WINDS"},"data":[0,0,0,0,0,0,0,0,0,0,0,0,0,0,0,0,0,0,0,0,0,0,0,0,0,0,0,0,0,0,0,0,0,0,0,0,0,0,0,0,0,0,0,0,0,0,0,0,0,0,0,0,0,0,0,0,0,0,-1.5274,-1.5275,0,-1.5316,-1.5317,-1.5317,-1.5245,-1.5242,-1.524,-1.5237,-1.5284,-1.5287,-1.5291,0,0,0,0,0,0,0,0,0,0,0,0,0,-1.5135,-1.5138,-1.5274,-1.5275,-1.5275,-1.5316,-1.5317,-1.5317,-1.5245,-1.5242,-1.5239,-1.5236,-1.5283,-1.5287,-1.5291,0,0,0,0,0,0,0,0,0,0,0,0,0,-1.5188,-1.5139,-1.5274,-1.5244,-1.5242,-1.5316,-1.5317,-1.5317,-1.5246,-1.5242,-1.5238,-1.5235,-1.5281,-1.5286,-1.5292,-1.5398,0,0,-1.5308,-1.531,0,0,0,0,0,0,0,0,-1.5185,-1.5194,-1.5248,-1.5246,-1.5244,-1.5271,-1.5285,-1.5345,-1.5247,-1.5244,-1.5237,-1.5233,-1.5283,-1.5288,-1.5304,-1.54,-1.5402,-1.5308,-1.5311,-1.5314,-1.5315,0,0,0,0,0,0,0,-1.5182,-1.5191,-1.5291,-1.5249,-1.5247,-1.523,-1.5233,-1.5296,-1.5284,-1.5244,-1.5239,-1.5245,-1.5281,-1.5299,-1.5304,-1.5403,-1.5308,-1.5313,-1.5316,-1.5318,-1.559,-1.5594,0,0,0,0,0,0,-1.5181,-1.5189,-1.529,-1.5292,-1.5205,-1.5235,-1.5239,-1.5266,-1.5283,-1.5282,-1.5248,-1.5241,-1.5292,-1.5298,-1.5306,-1.5433,-1.5314,-1.5319,-1.5322,-1.5586,-1.5591,-1.5595,0,0,0,0,0,0,-1.5179,-1.5191,-1.5288,-1.5239,-1.525,-1.5241,-1.5273,-1.5269,-1.5287,-1.5286,-1.5284,-1.5268,-1.5289,-1.5298,-1.5376,-1.5433,-1.5321,-1.5326,-1.5581,-1.5588,-1.5593,-1.5687,0,0,0,0,0,0,-1.5175,-1.5191,-1.523,-1.524,-1.5253,-1.5357,-1.5276,-1.5273,-1.5296,-1.5288,-1.5304,-1.5303,-1.5287,-1.5368,-1.5381,-1.5439,-1.533,-1.5576,-1.5584,-1.5591,-1.5679,-1.5696,-1.571,0,0,0,0,0,-1.517,-1.5255,-1.5233,-1.5245,-1.5302,-1.536,-1.5367,-1.5345,-1.5301,-1.5341,-1.534,-1.5303,-1.5424,-1.5377,-1.5391,-1.5451,-1.5573,-1.5582,-1.5591,-1.5672,-1.5692,-1.571,0,0,0,0,0,0,-1.5253,-1.5256,-1.5231,-1.5322,-1.5341,-1.5348,-1.5398,-1.5368,-1.5401,-1.5392,-1.5364,-1.5369,-1.5453,-1.5459,-1.5406,-1.5555,-1.5491,-1.5504,-1.5548,-1.5568,-1.5583,-1.5581,-1.5334,0,0,0,0,0,-1.5282,-1.5327,-1.5328,-1.5408,-1.5419,-1.5407,-1.5431,-1.5413,-1.5432,-1.544,-1.5445,-1.5467,-1.5509,-1.5539,-1.5578,-1.5679,-1.5682,-1.5727,-1.5743,-1.5755,-1.5767,-1.5822,-1.5843,-1.5625,-1.5625,-1.5625,0,0,-1.5342,-1.5349,-1.538,-1.5425,-1.5438,-1.5487,-1.5414,-1.5469,-1.5506,-1.5449,-1.5523,-1.5527,-1.5549,-1.5639,-1.5679,-1.5647,-1.5828,-1.5767,-1.5777,-1.5782,-1.5834,-1.5855,-1.5873,-1.5632,-1.5631,-1.563,0,0,-1.5477,-1.5486,-1.5555,-1.5569,-1.5589,-1.558,-1.5597,-1.5608,-1.5609,-1.5681,-1.564,-1.5684,-1.5758,-1.5776,-1.5794,-1.5936,-1.5904,-1.595,-1.6032,-1.6086,-1.6104,-1.6119,-1.6171,-1.619,-1.5961,-1.5961,-1.5961,0,-1.555,-1.5621,-1.5594,-1.5652,-1.5674,-1.5623,-1.5693,-1.5708,-1.5741,-1.5758,-1.5721,-1.5813,-1.5824,-1.5919,-1.5953,-1.5969,-1.5989,-1.5949,-1.6103,-1.6118,-1.6132,-1.6181,-1.6201,-1.5967,-1.5966,-1.5966,-1.5965,0,-1.571,-1.5761,-1.5814,-1.5845,-1.5873,-1.5937,-1.592,-1.5952,-1.593,-1.5926,-1.6002,-1.6013,-1.6055,-1.6075,-1.6056,-1.6167,-1.6147,-1.6107,-1.6043,-1.6158,-1.6205,-1.6223,-1.5975,-1.5973,-1.5971,-1.597,0,0,-1.59,-1.5916,-1.5936,-1.595,-1.5968,-1.6007,-1.6069,-1.6109,-1.6137,-1.6161,-1.6213,-1.6277,-1.624,-1.6262,-1.6243,-1.6291,-1.6405,-1.6245,-1.6245,-1.6276,-1.653,-1.6562,-1.6584,-1.6382,-1.6386,-1.6388,-1.6529,0,-1.6036,-1.6142,-1.6119,-1.6224,-1.6271,-1.6223,-1.6277,-1.6295,-1.6293,-1.6333,-1.633,-1.6377,-1.6324,-1.6337,-1.6381,-1.6381,-1.6456,-1.637,-1.6433,-1.6435,-1.6431,-1.6608,-1.6641,-1.6774,-1.6547,-1.655,-1.6552,0,-1.6208,-1.6238,-1.6348,-1.6359,-1.6378,-1.6427,-1.6462,-1.65,-1.652,-1.6515,-1.6539,-1.6511,-1.6574,-1.6507,-1.6594,-1.6537,-1.6561,-1.6565,-1.6569,-1.6576,-1.6502,-1.6622,-1.6815,-1.6836,-1.658,-1.6578,-1.6576,0,-1.6339,-1.6406,-1.648,-1.6493,-1.6508,-1.6544,-1.6552,-1.6567,-1.6593,-1.6624,-1.664,-1.6678,-1.6699,-1.673,-1.6714,-1.6666,-1.6805,-1.6736,-1.6804,-1.6805,-1.6837,-1.6836,-1.7039,-1.6849,-1.6849,-1.6849,-1.6848,0,-1.6494,-1.6563,-1.6539,-1.6585,-1.6661,-1.6635,-1.6712,-1.6714,-1.6728,-1.6775,-1.6736,-1.678,-1.6756,-1.6799,-1.6787,-1.6862,-1.6871,-1.687,-1.6867,-1.6875,-1.6876,-1.6892,-1.6883,-1.6854,-1.6853,-1.6852,-1.6851,0,-1.6653,-1.6639,-1.6717,-1.6724,-1.6728,-1.6784,-1.6791,-1.6834,-1.6828,-1.6888,-1.69,-1.6892,-1.6941,-1.6927,-1.6981,-1.6972,-1.7068,-1.7051,-1.7061,-1.7058,-1.7127,-1.7122,-1.735,-1.738,-1.7169,-1.7171,-1.7173,0,-1.6753,-1.6805,-1.6818,-1.6846,-1.6857,-1.6902,-1.6927,-1.6903,-1.6932,-1.6958,-1.6999,-1.7044,-1.7079,-1.716,-1.7159,-1.72,-1.7186,-1.7263,-1.7192,-1.7199,-1.7189,-1.7187,-1.7193,-1.7278,-1.7281,-1.7282,-1.7284,0,-1.6934,-1.6925,-1.6963,-1.6999,-1.7031,-1.7058,-1.7082,-1.7107,-1.7085,-1.7119,-1.7168,-1.7195,-1.7249,-1.7295,-1.7333,-1.7342,-1.7311,-1.7306,-1.7324,-1.7334,-1.7339,-1.7339,-1.7102,-1.7302,-1.73,-1.7299,-1.7298,-1.7297,-1.7069,-1.7113,-1.7129,-1.7173,-1.7188,-1.7211,-1.7253,-1.7252,-1.7292,-1.7334,-1.7317,-1.7374,-1.7393,-1.744,-1.7454,-1.7499,-1.7469,-1.7495,-1.7502,-1.751,-1.7519,-1.733,-1.7505,-1.7505,-1.7504,-1.7504,-1.7503,0,-1.7249,-1.7257,-1.7297,-1.7332,-1.7367,-1.7332,-1.7357,-1.7389,-1.7439,-1.7458,-1.7493,-1.7551,-1.7595,-1.7598,-1.764,-1.7675,-1.7662,-1.7687,-1.7685,-1.7689,-1.7542,-1.7523,-1.7697,-1.7697,-1.7697,-1.7697,-1.7697,-1.7697,-1.7347,-1.7421,-1.7414,-1.7496,-1.7503,-1.7558,-1.7575,-1.7597,-1.7612,-1.7678,-1.7714,-1.7715,-1.7728,-1.7771,-1.781,-1.781,-1.7828,-1.786,-1.7854,-1.7718,-1.7699,-1.768,-1.7662,-1.7863,-1.7864,-1.7997,-1.7999,-1.7999]},{"header":{"parameterUnit":"m.s-1","parameterCategory":1,"la1":30.2991,"la2":30.254,"lo1":-89.0895,"lo2":-89.0444,"dy":0.0017,"dx":0.0017,"nx":28,"ny":28,"refTime":"2024-10-02T21:00:00:Z","depth":0,"parameterNumber":3,"parameterNumberName":"V-component_of_WINDS"},"data":[0,0,0,0,0,0,0,0,0,0,0,0,0,0,0,0,0,0,0,0,0,0,0,0,0,0,0,0,0,0,0,0,0,0,0,0,0,0,0,0,0,0,0,0,0,0,0,0,0,0,0,0,0,0,0,0,0,0,-1.7313,-1.7313,0,-1.732,-1.732,-1.732,-1.729,-1.7289,-1.7288,-1.7287,-1.7293,-1.7294,-1.7295,0,0,0,0,0,0,0,0,0,0,0,0,0,-1.7273,-1.7274,-1.7313,-1.7313,-1.7313,-1.732,-1.732,-1.732,-1.729,-1.7289,-1.7288,-1.7287,-1.7293,-1.7294,-1.7295,0,0,0,0,0,0,0,0,0,0,0,0,0,-1.7286,-1.7274,-1.7313,-1.7299,-1.7298,-1.732,-1.732,-1.732,-1.729,-1.7289,-1.7288,-1.7287,-1.7293,-1.7294,-1.7295,-1.7331,0,0,-1.73,-1.7301,0,0,0,0,0,0,0,0,-1.7285,-1.7287,-1.7301,-1.73,-1.7299,-1.7303,-1.7308,-1.7324,-1.7291,-1.7293,-1.7287,-1.7286,-1.7297,-1.7298,-1.7303,-1.7331,-1.7331,-1.73,-1.7301,-1.7302,-1.7302,0,0,0,0,0,0,0,-1.7284,-1.7287,-1.7316,-1.7301,-1.73,-1.7292,-1.7293,-1.7311,-1.7303,-1.7293,-1.7291,-1.7292,-1.7297,-1.7301,-1.7302,-1.7331,-1.73,-1.7301,-1.7302,-1.7303,-1.7389,-1.7391,0,0,0,0,0,0,-1.7285,-1.7286,-1.7316,-1.7316,-1.7289,-1.7294,-1.7294,-1.7303,-1.7302,-1.7301,-1.7293,-1.7291,-1.7299,-1.7301,-1.7303,-1.7344,-1.7302,-1.7303,-1.7304,-1.7388,-1.739,-1.7391,0,0,0,0,0,0,-1.7285,-1.7288,-1.7315,-1.7301,-1.7304,-1.7296,-1.7306,-1.7304,-1.7308,-1.7303,-1.7301,-1.73,-1.7298,-1.73,-1.7324,-1.7344,-1.7304,-1.7305,-1.7386,-1.7389,-1.7391,-1.7427,0,0,0,0,0,0,-1.7284,-1.7288,-1.7302,-1.7301,-1.7304,-1.7337,-1.7307,-1.7305,-1.7311,-1.7308,-1.7308,-1.7307,-1.7298,-1.7322,-1.7326,-1.7345,-1.7306,-1.7385,-1.7387,-1.739,-1.7424,-1.7431,-1.7436,0,0,0,0,0,-1.7282,-1.7312,-1.7303,-1.7306,-1.7321,-1.7338,-1.734,-1.7329,-1.7313,-1.7326,-1.7323,-1.7307,-1.7341,-1.7325,-1.7328,-1.7349,-1.7383,-1.7387,-1.739,-1.7422,-1.7429,-1.7436,0,0,0,0,0,0,-1.7314,-1.7311,-1.7301,-1.7331,-1.7336,-1.7333,-1.735,-1.7338,-1.7346,-1.7342,-1.7328,-1.7328,-1.7355,-1.7354,-1.7336,-1.7383,-1.7359,-1.7363,-1.7383,-1.739,-1.7395,-1.7395,-1.7307,0,0,0,0,0,-1.7325,-1.7339,-1.7336,-1.7363,-1.7365,-1.7357,-1.7364,-1.7356,-1.7359,-1.7361,-1.7358,-1.7362,-1.7374,-1.7382,-1.7392,-1.7424,-1.7424,-1.744,-1.7446,-1.745,-1.7454,-1.7471,-1.7478,-1.7402,-1.7402,-1.7402,0,0,-1.7347,-1.7347,-1.7357,-1.7369,-1.7371,-1.7386,-1.7359,-1.7376,-1.7387,-1.7363,-1.7385,-1.7384,-1.7387,-1.7415,-1.7428,-1.7416,-1.7475,-1.7454,-1.7458,-1.7459,-1.7475,-1.7482,-1.7489,-1.7404,-1.7404,-1.7403,0,0,-1.7394,-1.7396,-1.7419,-1.7422,-1.7425,-1.742,-1.7426,-1.7425,-1.7424,-1.7446,-1.7429,-1.7441,-1.7461,-1.7464,-1.7469,-1.7518,-1.7504,-1.7522,-1.7551,-1.7568,-1.7574,-1.758,-1.7597,-1.7604,-1.7525,-1.7525,-1.7525,0,-1.7421,-1.7444,-1.7432,-1.745,-1.7456,-1.7436,-1.7459,-1.7462,-1.7468,-1.7473,-1.7459,-1.7485,-1.7485,-1.7514,-1.7526,-1.753,-1.7536,-1.7521,-1.7574,-1.758,-1.7584,-1.7601,-1.7608,-1.7528,-1.7527,-1.7527,-1.7527,0,-1.7476,-1.7492,-1.751,-1.7518,-1.7525,-1.7546,-1.7537,-1.7546,-1.7537,-1.7533,-1.7556,-1.7556,-1.7566,-1.7572,-1.7563,-1.76,-1.7592,-1.7577,-1.7553,-1.7594,-1.7609,-1.7616,-1.7531,-1.753,-1.7529,-1.7529,0,0,-1.7544,-1.7545,-1.7552,-1.7555,-1.7558,-1.757,-1.759,-1.76,-1.7608,-1.7614,-1.7629,-1.7647,-1.7633,-1.7638,-1.7629,-1.7644,-1.7683,-1.7627,-1.7626,-1.7637,-1.7724,-1.7735,-1.7743,-1.7674,-1.7675,-1.7676,-1.7723,0,-1.7591,-1.7624,-1.7615,-1.7649,-1.7663,-1.7644,-1.7661,-1.7664,-1.7661,-1.7673,-1.7669,-1.7682,-1.7662,-1.7665,-1.7679,-1.7675,-1.77,-1.7672,-1.7688,-1.7689,-1.7688,-1.7751,-1.7763,-1.7808,-1.7729,-1.773,-1.7731,0,-1.765,-1.7658,-1.7694,-1.7694,-1.77,-1.7716,-1.7724,-1.7736,-1.7739,-1.7736,-1.7742,-1.773,-1.7749,-1.7725,-1.775,-1.7731,-1.7737,-1.7737,-1.7738,-1.7739,-1.7712,-1.7754,-1.7822,-1.7829,-1.774,-1.774,-1.7739,0,-1.7696,-1.7716,-1.774,-1.7743,-1.7745,-1.7756,-1.7757,-1.7759,-1.7766,-1.7774,-1.7778,-1.7788,-1.7793,-1.7801,-1.7792,-1.7775,-1.7819,-1.7794,-1.7816,-1.7817,-1.7826,-1.7826,-1.7896,-1.783,-1.783,-1.783,-1.783,0,-1.7749,-1.7771,-1.776,-1.7775,-1.78,-1.7788,-1.7813,-1.7811,-1.7814,-1.7828,-1.7812,-1.7825,-1.7812,-1.7824,-1.7817,-1.784,-1.7842,-1.784,-1.7838,-1.7841,-1.7841,-1.7845,-1.7841,-1.7832,-1.7831,-1.7831,-1.7831,0,-1.7804,-1.7798,-1.7823,-1.7822,-1.7823,-1.7841,-1.784,-1.7854,-1.785,-1.7867,-1.7871,-1.7864,-1.7878,-1.7869,-1.7883,-1.7878,-1.7907,-1.7901,-1.7907,-1.7905,-1.7928,-1.7926,-1.8003,-1.8013,-1.794,-1.7941,-1.7942,0,-1.7839,-1.7856,-1.7857,-1.7866,-1.7868,-1.7882,-1.7889,-1.7878,-1.7886,-1.7892,-1.7905,-1.7917,-1.7926,-1.7948,-1.7944,-1.7955,-1.7948,-1.7975,-1.795,-1.7953,-1.7949,-1.7948,-1.795,-1.798,-1.7981,-1.7981,-1.7982,0,-1.7901,-1.7897,-1.7908,-1.7919,-1.7928,-1.7935,-1.7941,-1.7949,-1.7938,-1.7948,-1.7962,-1.7969,-1.7983,-1.7996,-1.8004,-1.8005,-1.7992,-1.799,-1.7996,-1.7999,-1.8002,-1.8001,-1.792,-1.7988,-1.7987,-1.7987,-1.7987,-1.7986,-1.7946,-1.7961,-1.7964,-1.7978,-1.7981,-1.7987,-1.8,-1.7998,-1.8009,-1.802,-1.8013,-1.803,-1.8033,-1.8043,-1.8045,-1.8058,-1.8047,-1.8055,-1.8057,-1.806,-1.8063,-1.8,-1.8059,-1.8059,-1.8059,-1.8059,-1.8059,0,-1.8008,-1.8009,-1.8021,-1.8031,-1.8041,-1.8028,-1.8035,-1.8044,-1.8059,-1.8063,-1.8073,-1.8089,-1.81,-1.8098,-1.8108,-1.8119,-1.8113,-1.8122,-1.8121,-1.8122,-1.8072,-1.8066,-1.8127,-1.8127,-1.8127,-1.8127,-1.8127,-1.8127,-1.8041,-1.8064,-1.8061,-1.8086,-1.8087,-1.8104,-1.8108,-1.8114,-1.8117,-1.8136,-1.8146,-1.8144,-1.8146,-1.8156,-1.8167,-1.8165,-1.817,-1.8181,-1.8178,-1.8132,-1.8125,-1.8119,-1.8113,-1.8182,-1.8183,-1.8227,-1.8227,-1.8227]}]]